QPF
0.00 0.00 0.00 0.00 0.00 0.00 0.00 0.00 0.00 0.00 0.00 0.00 0.00 0.00 0.00 0.00 0.00 0.00 0.00 0.00 0.00 0.00 0.00 0.00 0.00 0.00 0.00 0.04 0.12 0.14 0.10 0.04 0.03 0.01 0.01 0.00 0.00 0.00 0.00 0.00 0.00 0.00 0.00 0.00
0.00 0.00 0.00 0.00 0.00 0.00 0.00 0.00 0.00 0.00 0.00 0.00 0.00 0.00 0.00 0.00 0.00 0.00 0.00 0.00 0.00 0.00 0.00 0.00 0.01 0.01 0.02 0.03 0.06 0.04 0.01 0.00 0.00 0.00 0.00 0.00 0.00 0.00 0.00 0.00 0.00 0.00 0.00 0.00
0.00 0.00 0.00 0.00 0.00 0.00 0.00 0.00 0.00 0.00 0.00 0.00 0.00 0.00 0.00 0.00 0.00 0.00 0.00 0.00 0.00 0.00 0.00 0.01 0.02 0.03 0.03 0.01 0.00 0.00 0.00 0.00 0.00 0.00 0.00 0.00 0.00 0.00 0.00 0.00 0.00 0.00 0.00 0.00
0.00 0.00 0.00 0.00 0.00 0.00 0.00 0.00 0.00 0.00 0.00 0.00 0.00 0.00 0.00 0.00 0.00 0.00 0.00 0.00 0.00 0.00 0.01 0.01 0.01 0.01 0.00 0.00 0.00 0.00 0.00 0.00 0.00 0.00 0.00 0.00 0.00 0.00 0.00 0.00 0.00 0.00 0.00 0.00
0.00 0.00 0.00 0.00 0.00 0.00 0.00 0.00 0.00 0.00 0.00 0.00 0.00 0.00 0.00 0.00 0.00 0.00 0.00 0.00 0.00 0.00 0.00 0.00 0.00 0.00 0.00 0.00 0.00 0.00 0.00 0.00 0.00 0.00 0.00 0.00 0.00 0.00 0.00 0.00 0.00 0.00 0.00 0.00
0.00 0.00 0.00 0.00 0.00 0.00 0.00 0.00 0.00 0.00 0.00 0.00 0.00 0.00 0.00 0.00 0.00 0.00 0.00 0.00 0.00 0.00 0.00 0.00 0.00 0.00 0.00 0.00 0.00 0.00 0.00 0.00 0.00 0.00 0.00 0.00 0.00 0.00 0.00 0.00 0.00 0.00 0.00 0.00
0.00 0.00 0.00 0.00 0.00 0.00 0.00 0.00 0.00 0.00 0.00 0.00 0.00 0.00 0.00 0.00 0.00 0.00 0.00 0.00 0.00 0.00 0.00 0.00 0.00 0.00 0.00 0.00 0.00 0.00 0.00 0.00 0.00 0.00 0.00 0.00 0.00 0.00 0.00 0.00 0.00 0.00 0.00 0.00
0.00 0.00 0.00 0.00 0.00 0.00 0.00 0.00 0.00 0.00 0.00 0.00 0.00 0.00 0.00 0.00 0.00 0.00 0.00 0.00 0.00 0.00 0.00 0.00 0.00 0.00 0.00 0.00 0.00 0.00 0.00 0.00 0.00 0.00 0.00 0.00 0.00 0.00 0.00 0.00 0.00 0.00 0.00 0.00
0.00 0.00 0.00 0.00 0.00 0.00 0.00 0.00 0.00 0.00 0.00 0.00 0.00 0.00 0.00 0.00 0.00 0.00 0.00 0.00 0.00 0.00 0.00 0.00 0.00 0.00 0.00 0.00 0.00 0.00 0.00 0.00 0.00 0.00 0.00 0.00 0.00 0.00 0.00 0.00 0.00 0.00 0.00 0.00
0.00 0.00 0.00 0.00 0.00 0.00 0.00 0.00 0.00 0.00 0.00 0.00 0.00 0.00 0.00 0.00 0.00 0.00 0.00 0.00 0.00 0.00 0.00 0.00 0.00 0.00 0.00 0.00 0.00 0.00 0.00 0.00 0.00 0.00 0.00 0.00 0.00 0.00 0.00 0.00 0.00 0.00 0.00 0.00
0.00 0.00 0.00 0.00 0.00 0.00 0.00 0.00 0.00 0.00 0.00 0.00 0.00 0.00 0.00 0.00 0.00 0.00 0.00 0.00 0.00 0.00 0.00 0.00 0.00 0.00 0.00 0.00 0.00 0.00 0.00 0.00 0.00 0.00 0.00 0.00 0.00 0.00 0.00 0.00 0.00 0.00 0.00 0.00
0.00 0.00 0.00 0.00 0.00 0.00 0.00 0.00 0.00 0.00 0.00 0.00 0.00 0.00 0.00 0.00 0.00 0.00 0.00 0.00 0.00 0.00 0.00 0.00 0.00 0.00 0.00 0.00 0.00 0.00 0.00 0.00 0.00 0.00 0.00 0.00 0.00 0.00 0.00 0.00 0.00 0.00 0.00 0.00
0.00 0.00 0.00 0.00 0.00 0.00 0.00 0.00 0.00 0.00 0.00 0.00 0.00 0.00 0.00 0.00 0.00 0.00 0.00 0.00 0.00 0.00 0.00 0.00 0.00 0.00 0.00 0.00 0.00 0.00 0.00 0.00 0.00 0.00 0.00 0.00 0.00 0.00 0.00 0.00 0.00 0.00 0.00 0.00
0.00 0.00 0.00 0.00 0.00 0.00 0.00 0.00 0.00 0.00 0.00 0.00 0.00 0.00 0.00 0.00 0.00 0.00 0.00 0.00 0.00 0.00 0.00 0.00 0.00 0.00 0.00 0.00 0.00 0.00 0.00 0.00 0.00 0.00 0.00 0.00 0.00 0.00 0.00 0.00 0.00 0.00 0.00 0.00
0.00 0.00 0.00 0.00 0.00 0.00 0.00 0.00 0.00 0.00 0.00 0.00 0.00 0.00 0.00 0.00 0.00 0.00 0.00 0.00 0.00 0.00 0.00 0.00 0.00 0.00 0.00 0.00 0.00 0.00 0.00 0.00 0.00 0.00 0.00 0.00 0.00 0.00 0.00 0.00 0.00 0.00 0.00 0.00
0.00 0.00 0.00 0.00 0.00 0.00 0.00 0.00 0.00 0.00 0.00 0.00 0.00 0.00 0.00 0.00 0.00 0.00 0.00 0.00 0.00 0.00 0.00 0.00 0.00 0.00 0.00 0.00 0.00 0.00 0.00 0.00 0.00 0.00 0.00 0.00 0.00 0.00 0.00 0.00 0.00 0.00 0.00 0.00
0.00 0.00 0.00 0.00 0.00 0.00 0.00 0.00 0.00 0.00 0.00 0.00 0.00 0.00 0.00 0.00 0.00 0.00 0.00 0.00 0.00 0.00 0.00 0.00 0.00 0.00 0.00 0.00 0.00 0.00 0.00 0.00 0.00 0.00 0.00 0.00 0.00 0.00 0.00 0.00 0.00 0.00 0.00 0.00
0.00 0.00 0.00 0.00 0.00 0.00 0.00 0.00 0.00 0.00 0.00 0.00 0.00 0.00 0.00 0.00 0.00 0.00 0.00 0.00 0.00 0.00 0.00 0.00 0.00 0.00 0.00 0.00 0.00 0.00 0.00 0.00 0.00 0.00 0.00 0.00 0.00 0.00 0.00 0.00 0.00 0.00 0.00 0.00
0.00 0.00 0.00 0.00 0.00 0.00 0.00 0.00 0.00 0.00 0.00 0.00 0.00 0.00 0.00 0.00 0.00 0.00 0.00 0.00 0.00 0.00 0.00 0.00 0.00 0.00 0.00 0.00 0.00 0.00 0.00 0.00 0.00 0.00 0.00 0.00 0.00 0.00 0.00 0.00 0.00 0.00 0.00 0.00
0.00 0.00 0.00 0.00 0.00 0.00 0.00 0.00 0.00 0.00 0.00 0.00 0.00 0.00 0.00 0.00 0.00 0.00 0.00 0.00 0.00 0.00 0.00 0.00 0.00 0.00 0.00 0.00 0.00 0.00 0.00 0.00 0.00 0.00 0.00 0.00 0.00 0.00 0.00 0.00 0.00 0.00 0.00 0.00
0.00 0.00 0.00 0.00 0.00 0.00 0.00 0.00 0.00 0.00 0.00 0.00 0.00 0.00 0.00 0.00 0.00 0.00 0.00 0.00 0.00 0.00 0.00 0.00 0.00 0.00 0.00 0.00 0.00 0.00 0.00 0.00 0.00 0.00 0.00 0.00 0.00 0.00 0.00 0.00 0.00 0.00 0.00 0.00
0.00 0.00 0.00 0.00 0.00 0.00 0.00 0.00 0.00 0.00 0.00 0.00 0.00 0.00 0.00 0.00 0.00 0.00 0.00 0.00 0.00 0.00 0.00 0.00 0.00 0.00 0.00 0.00 0.00 0.00 0.00 0.00 0.00 0.00 0.00 0.00 0.00 0.00 0.00 0.00 0.00 0.00 0.00 0.00
0.00 0.00 0.00 0.00 0.00 0.00 0.00 0.00 0.00 0.00 0.00 0.00 0.00 0.00 0.00 0.00 0.00 0.00 0.00 0.00 0.00 0.00 0.00 0.00 0.00 0.00 0.00 0.00 0.00 0.00 0.00 0.00 0.00 0.00 0.00 0.00 0.00 0.00 0.00 0.00 0.00 0.00 0.00 0.00
0.00 0.00 0.00 0.00 0.00 0.00 0.00 0.00 0.00 0.00 0.00 0.00 0.00 0.00 0.00 0.00 0.00 0.00 0.00 0.00 0.00 0.00 0.00 0.00 0.00 0.00 0.00 0.00 0.00 0.00 0.00 0.00 0.00 0.00 0.00 0.00 0.00 0.00 0.00 0.00 0.00 0.00 0.00 0.00
0.00 0.00 0.00 0.00 0.00 0.00 0.00 0.00 0.00 0.00 0.00 0.00 0.00 0.00 0.00 0.00 0.00 0.00 0.00 0.00 0.00 0.00 0.00 0.00 0.00 0.00 0.00 0.00 0.00 0.00 0.00 0.00 0.00 0.00 0.00 0.00 0.00 0.00 0.00 0.00 0.00 0.00 0.00 0.00
0.00 0.00 0.00 0.00 0.00 0.00 0.00 0.00 0.00 0.00 0.00 0.00 0.00 0.00 0.00 0.00 0.00 0.00 0.00 0.00 0.00 0.00 0.00 0.00 0.00 0.00 0.00 0.00 0.00 0.00 0.00 0.00 0.00 0.00 0.00 0.00 0.00 0.00 0.00 0.00 0.00 0.00 0.00 0.00
MSLP
1010.24 1011.10 1011.49 1011.83 1012.01 1012.13 1012.44 1012.81 1012.99 1012.91 1012.57 1013.11 1014.07 1015.09 1015.68 1015.97 1016.69 1017.61 1018.20 1018.34 1018.79 1018.95 1019.24 1019.13 1018.82 1018.56 1018.90 1019.49 1019.87 1020.37 1020.53 1020.91 1020.87 1021.41 1022.03 1022.12 1022.82 1023.20 1023.43 1023.49 1023.50 1023.49 1023.53 1023.59
1010.96 1011.43 1011.57 1011.81 1011.95 1012.19 1012.60 1012.93 1013.15 1013.11 1013.09 1013.61 1015.12 1016.41 1016.84 1017.35 1017.98 1018.28 1018.53 1019.05 1019.39 1019.76 1020.07 1019.81 1019.51 1019.60 1019.84 1020.39 1020.55 1020.67 1020.68 1020.99 1021.34 1021.84 1022.31 1022.56 1023.27 1023.77 1023.91 1024.04 1023.94 1023.84 1023.93 1024.08
1011.73 1011.83 1011.66 1012.08 1012.60 1012.76 1013.40 1013.46 1013.50 1013.62 1013.88 1014.56 1015.74 1017.44 1018.16 1018.64 1018.61 1018.96 1019.56 1020.00 1020.31 1020.47 1020.65 1020.84 1020.77 1020.92 1020.95 1020.97 1021.08 1021.08 1021.23 1021.40 1021.66 1021.86 1022.26 1022.94 1023.48 1023.94 1024.32 1024.50 1024.61 1024.52 1024.27 1024.16
1012.18 1012.10 1012.16 1012.41 1012.94 1013.19 1013.56 1013.56 1013.84 1014.38 1015.16 1016.05 1016.66 1018.68 1019.01 1019.38 1019.67 1019.96 1020.35 1020.45 1020.58 1020.84 1021.02 1021.10 1021.56 1021.60 1021.60 1021.51 1021.26 1021.29 1021.46 1021.65 1021.82 1021.75 1022.16 1022.58 1023.15 1023.93 1024.55 1024.74 1024.74 1024.50 1024.29 1024.17
1012.92 1012.74 1012.63 1012.83 1013.08 1013.26 1013.82 1014.13 1014.81 1015.52 1016.44 1017.01 1017.67 1018.61 1019.29 1019.89 1020.40 1020.43 1020.52 1020.56 1020.66 1020.97 1021.12 1021.21 1021.36 1021.39 1021.74 1022.08 1022.03 1021.88 1021.97 1022.25 1022.42 1022.53 1022.68 1022.99 1023.48 1023.84 1024.26 1024.44 1024.51 1024.45 1024.34 1024.14
1012.95 1012.81 1012.83 1012.97 1013.08 1013.41 1013.83 1014.82 1015.93 1016.86 1017.61 1018.34 1018.45 1018.84 1019.62 1019.43 1019.48 1020.10 1020.46 1020.74 1021.06 1021.26 1021.39 1021.30 1021.57 1021.53 1021.93 1022.36 1022.19 1022.27 1022.50 1022.70 1022.63 1022.55 1022.74 1023.05 1023.57 1024.12 1024.46 1024.54 1024.43 1024.29 1024.30 1024.20
1013.79 1013.63 1013.32 1013.20 1013.46 1013.69 1014.35 1015.82 1017.43 1018.78 1019.21 1019.58 1018.99 1019.01 1018.93 1018.77 1019.00 1019.73 1020.37 1020.78 1021.03 1021.17 1021.40 1021.70 1022.05 1021.94 1022.09 1022.41 1022.54 1022.75 1022.68 1022.82 1022.90 1023.02 1023.25 1023.49 1023.81 1024.11 1024.24 1024.13 1024.12 1024.21 1024.16 1024.04
1014.60 1014.52 1013.99 1013.69 1013.79 1014.20 1015.04 1016.20 1017.77 1019.35 1020.43 1020.38 1019.47 1019.33 1018.86 1018.50 1018.54 1019.45 1020.21 1020.59 1021.01 1021.57 1021.98 1022.39 1022.21 1022.28 1022.33 1022.28 1022.72 1023.00 1023.08 1023.15 1023.30 1023.42 1023.57 1023.72 1023.74 1023.69 1023.66 1023.64 1023.66 1023.74 1023.71 1023.51
1014.77 1014.81 1014.33 1014.01 1013.98 1014.46 1015.25 1016.56 1017.65 1019.67 1021.49 1021.32 1020.81 1019.95 1019.30 1019.24 1019.35 1019.88 1020.25 1020.56 1021.23 1021.72 1021.79 1022.17 1022.27 1022.29 1022.39 1022.59 1022.88 1023.07 1023.19 1023.40 1023.65 1023.86 1023.77 1023.65 1023.56 1023.55 1023.45 1023.38 1023.43 1023.34 1023.27 1023.02
1014.87 1015.30 1015.00 1014.53 1014.42 1014.73 1015.10 1016.57 1018.15 1019.89 1021.86 1022.41 1021.72 1020.76 1019.92 1019.80 1020.07 1020.20 1020.81 1020.96 1021.55 1021.87 1022.14 1022.44 1022.53 1022.62 1022.78 1022.97 1023.06 1022.95 1023.09 1023.41 1023.54 1023.50 1023.32 1023.34 1023.42 1023.45 1023.41 1023.44 1023.29 1023.10 1022.88 1022.85
1015.08 1015.70 1016.23 1015.62 1015.63 1015.66 1015.96 1016.91 1018.61 1020.43 1022.04 1022.81 1022.52 1021.13 1019.35 1019.34 1019.72 1020.21 1020.76 1021.24 1021.63 1022.25 1022.71 1023.05 1023.10 1023.01 1023.15 1023.15 1023.22 1023.35 1023.57 1023.57 1023.58 1023.49 1023.47 1023.54 1023.54 1023.47 1023.43 1023.39 1023.03 1022.78 1022.67 1023.16
1015.90 1016.82 1017.35 1016.94 1016.35 1016.06 1016.30 1017.27 1018.76 1021.10 1022.73 1023.37 1022.92 1020.96 1019.47 1019.37 1019.65 1020.21 1020.97 1021.50 1022.00 1022.42 1022.95 1023.07 1023.03 1023.06 1023.26 1023.46 1023.49 1023.59 1023.73 1023.73 1023.58 1023.59 1023.67 1023.67 1023.57 1023.48 1023.38 1023.21 1023.05 1023.13 1022.97 1022.59
1016.40 1017.48 1018.29 1018.07 1017.48 1016.81 1017.00 1017.70 1019.08 1020.62 1022.03 1023.07 1023.27 1021.28 1020.05 1020.03 1020.58 1020.96 1021.32 1021.97 1022.54 1022.89 1023.25 1023.50 1023.61 1023.71 1023.73 1023.77 1023.70 1023.76 1023.81 1023.83 1023.71 1023.71 1023.79 1023.69 1023.55 1023.35 1023.20 1022.98 1022.67 1022.56 1022.41 1022.27
1016.74 1018.04 1018.55 1018.61 1018.17 1017.88 1017.94 1018.35 1019.29 1020.36 1021.99 1022.58 1022.05 1021.17 1020.86 1020.97 1021.25 1021.65 1022.16 1022.56 1023.14 1023.49 1023.65 1023.75 1023.77 1023.75 1023.71 1023.62 1023.84 1023.95 1024.11 1024.03 1023.85 1023.72 1023.70 1023.73 1023.72 1023.63 1023.44 1023.18 1022.83 1022.60 1022.33 1022.17
1017.63 1019.02 1019.56 1019.75 1019.39 1018.78 1018.60 1018.91 1019.53 1020.25 1020.75 1021.45 1021.00 1021.03 1020.65 1020.91 1021.47 1021.89 1022.39 1023.05 1023.38 1023.50 1023.50 1023.53 1023.60 1023.56 1023.59 1023.85 1023.96 1024.06 1024.02 1023.89 1023.78 1023.73 1023.80 1023.97 1023.94 1023.73 1023.54 1023.22 1022.80 1022.55 1022.45 1022.52
1018.91 1020.28 1020.82 1021.27 1020.82 1020.28 1019.62 1019.24 1019.40 1019.68 1020.05 1020.39 1020.54 1020.74 1020.52 1021.15 1021.72 1022.32 1022.73 1023.13 1023.38 1023.40 1023.35 1023.33 1023.39 1023.49 1023.79 1023.96 1024.00 1023.93 1023.90 1023.85 1023.79 1023.75 1023.92 1023.92 1023.78 1023.69 1023.59 1023.29 1022.97 1022.54 1022.46 1022.62
1020.24 1021.47 1022.78 1023.17 1022.48 1021.46 1020.47 1018.70 1018.63 1018.65 1018.87 1019.31 1020.31 1020.09 1020.81 1021.57 1021.91 1022.32 1022.76 1023.00 1023.25 1023.36 1023.39 1023.46 1023.58 1023.69 1023.86 1023.93 1023.95 1023.99 1023.83 1023.72 1023.71 1023.85 1023.94 1023.95 1023.89 1023.82 1023.51 1023.22 1023.08 1022.81 1022.76 1022.72
1021.22 1022.99 1024.07 1024.93 1023.92 1022.57 1019.10 1018.11 1017.84 1018.12 1018.48 1018.95 1019.61 1019.97 1020.44 1021.16 1021.82 1022.21 1022.53 1022.84 1023.09 1023.17 1023.36 1023.56 1023.62 1023.83 1023.93 1023.91 1023.94 1023.87 1023.77 1023.80 1023.96 1024.08 1024.15 1024.06 1023.92 1023.59 1023.28 1023.11 1023.06 1023.02 1022.95 1022.95
1021.25 1023.20 1025.38 1025.92 1024.90 1022.35 1019.37 1018.12 1017.74 1017.96 1018.49 1018.91 1019.63 1020.53 1021.14 1021.83 1022.34 1022.53 1022.44 1022.60 1022.80 1023.05 1023.27 1023.46 1023.54 1023.77 1023.93 1023.96 1023.86 1023.81 1023.86 1023.99 1024.16 1024.19 1024.13 1023.91 1023.73 1023.49 1023.27 1023.08 1022.90 1022.94 1022.90 1022.96
1022.52 1023.24 1024.76 1026.41 1025.85 1022.98 1019.17 1017.75 1017.38 1017.82 1018.61 1018.60 1019.53 1020.55 1021.35 1022.22 1022.84 1022.28 1022.10 1022.50 1022.68 1022.92 1023.25 1023.57 1023.75 1023.91 1023.99 1024.00 1023.97 1024.02 1024.14 1024.15 1024.17 1024.08 1023.96 1023.78 1023.68 1023.45 1023.19 1022.85 1022.65 1022.57 1022.64 1022.95
1023.44 1024.63 1025.20 1025.88 1024.81 1021.51 1018.65 1017.83 1017.60 1018.55 1018.42 1018.43 1019.17 1020.08 1021.19 1021.83 1021.48 1021.56 1021.92 1022.41 1022.64 1022.98 1023.32 1023.61 1023.89 1024.13 1024.12 1023.97 1024.04 1024.17 1024.16 1024.15 1023.99 1023.88 1023.91 1023.84 1023.65 1023.43 1023.01 1022.64 1022.51 1022.58 1022.91 1023.21
1022.73 1023.68 1024.51 1024.90 1023.77 1020.39 1017.86 1018.10 1017.97 1017.29 1017.55 1018.08 1018.89 1019.47 1020.25 1020.68 1021.24 1021.67 1022.08 1022.55 1022.94 1023.36 1023.73 1023.89 1024.09 1024.09 1024.05 1024.02 1024.12 1024.19 1024.27 1023.94 1023.78 1023.77 1023.88 1023.92 1023.70 1023.43 1023.18 1022.96 1022.90 1022.96 1023.20 1023.45
1021.73 1020.81 1021.24 1021.55 1019.57 1017.97 1017.31 1016.78 1016.53 1016.88 1017.33 1018.13 1018.54 1019.12 1019.75 1020.64 1021.11 1021.53 1022.19 1022.51 1023.30 1023.75 1023.93 1024.04 1024.16 1024.21 1024.13 1024.02 1024.07 1024.24 1024.08 1023.88 1023.70 1023.77 1023.87 1023.97 1023.75 1023.51 1023.33 1023.25 1023.23 1023.28 1023.43 1023.59
1019.99 1019.53 1019.92 1019.80 1017.87 1017.55 1017.26 1016.72 1016.82 1017.07 1017.46 1017.87 1018.31 1019.01 1019.76 1020.54 1021.09 1021.85 1022.62 1023.24 1023.68 1023.96 1024.13 1024.19 1024.32 1024.43 1024.33 1024.09 1024.16 1024.22 1024.00 1023.70 1023.58 1023.75 1023.89 1023.89 1023.74 1023.55 1023.39 1023.30 1023.27 1023.37 1023.52 1023.52
1019.12 1018.95 1018.57 1018.59 1017.64 1017.25 1016.90 1016.71 1016.81 1017.17 1017.46 1017.91 1018.49 1019.07 1019.80 1020.63 1021.58 1022.22 1023.07 1023.54 1023.92 1024.16 1024.27 1024.39 1024.57 1024.56 1024.44 1024.34 1024.34 1024.10 1023.84 1023.57 1023.41 1023.53 1023.60 1023.69 1023.65 1023.58 1023.43 1023.34 1023.25 1023.16 1023.10 1023.15
1018.02 1017.20 1017.41 1016.94 1016.33 1016.37 1016.40 1016.24 1016.78 1017.30 1017.61 1018.03 1018.63 1019.47 1020.26 1021.00 1021.99 1022.61 1023.32 1023.71 1024.03 1024.27 1024.45 1024.57 1024.57 1024.50 1024.45 1024.35 1024.20 1023.89 1023.55 1023.52 1023.45 1023.30 1023.24 1023.33 1023.51 1023.52 1023.39 1023.25 1023.07 1022.75 1022.73 1022.64
Thickness
5676 5661 5656 5668 5672 5675 5672 5660 5658 5665 5678 5669 5667 5655 5653 5660 5653 5648 5646 5648 5646 5646 5645 5647 5648 5650 5644 5638 5632 5627 5622 5614 5609 5600 5593 5588 5578 5572 5565 5558 5552 5547 5542 5537
5660 5655 5672 5673 5672 5672 5666 5657 5661 5671 5672 5667 5651 5637 5643 5644 5642 5643 5644 5640 5638 5635 5632 5634 5636 5633 5629 5624 5622 5618 5613 5605 5598 5590 5582 5577 5566 5556 5548 5542 5538 5533 5527 5521
5650 5664 5675 5668 5660 5659 5653 5653 5658 5662 5662 5659 5649 5631 5629 5635 5639 5640 5633 5631 5629 5628 5625 5623 5623 5621 5619 5618 5614 5611 5605 5598 5591 5584 5574 5562 5553 5544 5536 5529 5523 5519 5516 5511
5657 5667 5666 5662 5657 5657 5650 5664 5663 5659 5646 5626 5643 5603 5625 5627 5623 5624 5623 5622 5622 5620 5618 5616 5610 5608 5607 5606 5604 5601 5595 5588 5581 5575 5566 5557 5547 5534 5523 5518 5513 5509 5504 5499
5652 5656 5657 5654 5658 5663 5653 5662 5656 5652 5634 5632 5630 5606 5615 5619 5614 5617 5617 5618 5618 5616 5614 5610 5608 5608 5602 5594 5589 5587 5582 5576 5570 5564 5557 5549 5541 5533 5524 5516 5511 5505 5498 5492
5656 5667 5664 5661 5665 5665 5666 5652 5638 5630 5624 5600 5624 5611 5602 5610 5618 5616 5615 5614 5612 5608 5606 5606 5603 5600 5592 5583 5580 5577 5571 5565 5560 5557 5550 5543 5534 5524 5516 5509 5501 5493 5485 5475
5644 5647 5656 5663 5654 5659 5650 5630 5596 5596 5587 5590 5617 5610 5608 5621 5623 5618 5609 5607 5607 5606 5603 5598 5593 5590 5585 5577 5571 5567 5565 5559 5553 5546 5539 5531 5522 5513 5505 5498 5488 5476 5465 5455
5619 5616 5644 5655 5651 5645 5641 5630 5593 5608 5583 5590 5614 5604 5607 5621 5620 5614 5608 5605 5602 5597 5592 5586 5584 5580 5577 5571 5564 5557 5553 5548 5541 5533 5526 5518 5511 5504 5496 5486 5475 5463 5452 5443
5621 5625 5649 5653 5655 5650 5641 5618 5629 5593 5579 5576 5592 5609 5614 5615 5608 5605 5603 5601 5593 5587 5584 5580 5576 5571 5566 5560 5555 5549 5543 5536 5528 5520 5513 5506 5500 5490 5481 5472 5461 5450 5438 5425
5634 5619 5641 5648 5652 5649 5642 5637 5609 5589 5584 5589 5589 5596 5590 5601 5600 5601 5592 5587 5581 5578 5574 5568 5562 5557 5553 5549 5543 5538 5532 5524 5516 5508 5502 5494 5484 5475 5465 5455 5445 5434 5421 5408
5638 5625 5620 5636 5629 5628 5629 5624 5611 5600 5579 5570 5560 5582 5606 5606 5603 5595 5586 5583 5579 5570 5561 5553 5548 5545 5540 5534 5528 5522 5515 5509 5502 5496 5488 5478 5469 5461 5452 5440 5430 5419 5408 5389
5631 5610 5595 5621 5632 5638 5637 5629 5612 5577 5592 5554 5552 5575 5609 5605 5599 5593 5585 5578 5569 5560 5550 5544 5541 5535 5529 5522 5517 5511 5504 5497 5491 5483 5474 5465 5456 5447 5436 5426 5414 5399 5386 5371
5629 5608 5584 5601 5615 5628 5630 5627 5605 5592 5572 5578 5545 5573 5601 5597 5590 5584 5577 5569 5557 5549 5542 5535 5528 5522 5518 5512 5507 5500 5492 5486 5480 5472 5462 5453 5443 5433 5423 5411 5397 5381 5365 5350
5627 5610 5605 5592 5610 5615 5616 5619 5607 5598 5564 5574 5569 5590 5591 5584 5577 5571 5565 5555 5545 5538 5533 5527 5521 5516 5511 5506 5496 5489 5482 5476 5468 5459 5449 5437 5425 5413 5399 5386 5373 5359 5345 5330
5619 5606 5610 5604 5604 5614 5616 5609 5600 5597 5592 5580 5587 5582 5588 5578 5570 5565 5557 5543 5538 5533 5530 5524 5517 5512 5504 5494 5486 5479 5472 5464 5456 5446 5434 5420 5405 5392 5379 5367 5355 5340 5323 5307
5607 5589 5602 5599 5593 5592 5601 5601 5595 5591 5592 5585 5588 5581 5581 5572 5564 5556 5546 5537 5531 5528 5522 5516 5509 5501 5491 5482 5476 5469 5461 5451 5441 5431 5417 5403 5390 5376 5360 5347 5334 5321 5308 5292
5595 5577 5570 5572 5568 5578 5571 5596 5597 5601 5600 5592 5570 5580 5568 5560 5554 5544 5534 5529 5522 5516 5509 5503 5494 5486 5477 5471 5464 5455 5447 5438 5428 5415 5401 5387 5372 5357 5343 5330 5318 5304 5290 5281
5580 5554 5530 5541 5539 5545 5602 5605 5604 5599 5597 5589 5579 5571 5568 5557 5547 5536 5527 5520 5511 5505 5499 5491 5481 5473 5466 5459 5451 5442 5433 5423 5409 5396 5382 5369 5355 5342 5329 5314 5301 5288 5277 5270
5586 5548 5527 5524 5535 5569 5601 5601 5592 5588 5583 5579 5571 5559 5554 5539 5531 5526 5518 5511 5503 5497 5489 5478 5470 5462 5454 5446 5438 5428 5417 5403 5389 5376 5363 5352 5340 5327 5314 5301 5288 5277 5269 5263
5564 5549 5538 5516 5515 5527 5586 5596 5595 5588 5561 5574 5563 5548 5538 5523 5500 5513 5510 5504 5497 5487 5476 5466 5458 5450 5441 5432 5421 5409 5396 5384 5371 5360 5348 5336 5323 5311 5300 5289 5278 5270 5264 5257
5539 5515 5515 5471 5491 5540 5579 5587 5585 5556 5558 5565 5557 5545 5526 5516 5513 5513 5503 5494 5485 5473 5464 5454 5446 5436 5426 5417 5404 5392 5380 5367 5356 5343 5330 5318 5307 5296 5286 5277 5269 5261 5254 5248
5543 5533 5526 5507 5494 5545 5580 5575 5563 5568 5566 5557 5545 5535 5526 5521 5509 5501 5491 5477 5468 5458 5448 5440 5429 5420 5411 5401 5390 5378 5364 5354 5342 5328 5314 5301 5291 5282 5273 5263 5256 5251 5245 5240
5549 5554 5541 5544 5553 5574 5571 5576 5573 5563 5556 5545 5537 5529 5522 5508 5500 5488 5475 5466 5451 5440 5431 5423 5414 5404 5395 5386 5375 5362 5350 5339 5328 5314 5300 5287 5277 5268 5260 5252 5246 5241 5236 5229
5557 5558 5540 5552 5574 5564 5561 5564 5560 5551 5546 5535 5529 5521 5510 5500 5486 5471 5458 5446 5435 5426 5417 5407 5398 5389 5380 5370 5358 5346 5335 5324 5312 5298 5285 5275 5266 5256 5249 5243 5238 5233 5226 5221
5548 5551 5554 5536 5553 5554 5554 5550 5546 5537 5531 5526 5518 5509 5497 5482 5464 5454 5442 5431 5421 5411 5402 5392 5382 5373 5364 5353 5341 5331 5321 5311 5300 5287 5275 5264 5254 5247 5240 5235 5230 5227 5224 5221
5549 5553 5529 5536 5554 5551 5550 5543 5531 5522 5518 5513 5505 5489 5477 5464 5451 5440 5426 5416 5407 5397 5387 5377 5367 5358 5348 5337 5326 5317 5308 5296 5285 5276 5266 5256 5245 5237 5232 5228 5224 5222 5220 5219